Regional Weather Roundup
Issued by NWS

Home | Current Version | Previous Version | Text Only | Print | Product List | Glossary On
Versions: 1 2 3 4 5 6 7 8 9 10 11 12 13 14 15 16 17 18 19 20 21 22 23 24 25 26 27 28 29 30 31 32 33 34 35 36 37 38 39 40 41 42 43 44 45 46 47 48 49 50
000
ASUS43 KLMK 312110
RWRKY
KENTUCKY REGIONAL WEATHER ROUNDUP
NATIONAL WEATHER SERVICE LOUISVILLE KY
400 PM EST SAT JAN 31 2015

NOTE "FAIR" INDICATES FEW OR NO CLOUDS BELOW 12,000 FEET
WITH NO SIGNIFICANT WEATHER AND/OR OBSTRUCTIONS TO VISIBILITY.

KYZ001>023-026-027-061>063-070>075-312200-
WESTERN AND SOUTH CENTRAL KENTUCKY

CITY           SKY/WX    TMP DP  RH WIND       PRES   REMARKS
PADUCAH        CLOUDY    44  23  43 E7        30.25F
HENDERSON      CLOUDY    41  25  52 E8        30.28F
OWENSBORO      CLOUDY    41  23  48 CALM      30.31F
HOPKINSVILLE   CLOUDY    47  19  32 SE6       30.29F
BOWLING GREEN  CLOUDY    44  23  43 E6        30.31F
GLASGOW        CLOUDY    42  19  39 CALM      30.32S
$$

KYZ024-025-028>034-038-045-046-053-312200-
NORTH CENTRAL KENTUCKY

CITY           SKY/WX    TMP DP  RH WIND       PRES   REMARKS
LOUISVILLE/SDF CLOUDY    43  20  39 SW7       30.29F
LOUISVILLE/LOU CLOUDY    42  20  41 SW7       30.30F
FORT KNOX      CLOUDY    41  20  43 S7        30.28S
$$

KYZ035>037-039>044-047>052-055>060-089>105-312200-
NORTHEAST KENTUCKY

CITY           SKY/WX    TMP DP  RH WIND       PRES   REMARKS
LEXINGTON      CLOUDY    41  18  39 SW8       30.29F
COVINGTON      CLOUDY    38  19  46 SW6       30.27F WCI  33
FRANKFORT      CLOUDY    41  16  36 SW7       30.28F
$$

KYZ054-064>069-076>088-106>120-312200-
SOUTHEAST KENTUCKY

CITY           SKY/WX    TMP DP  RH WIND       PRES   REMARKS
JACKSON        PTSUNNY   42  14  32 VRB3      30.28F
LONDON         PTSUNNY   43   8  23 SW6       30.30S
SOMERSET       CLOUDY    43  14  31 W3        30.32F
MIDDLESBORO    MOSUNNY   45  15  30 S5        30.31S
MONTICELLO     MOCLDY    45  12  26 W6        30.34S
$$




USA.gov is the U.S. government's official web portal to all federal, state and local government web resources and services.